This is the latest recevied weather packets stored in our database for station/object K5NAN. If no packets are shown the sender has not sent any weather packets the latest 10 day(s).
| Time | Temp. | Humidity | Pressure | Rain* | Wind** | Luminosity | Snow |
|---|---|---|---|---|---|---|---|
| 1778024287 | 27.78° C | 72% | 1003.2 hPa | 0 mm | - | 62 W/m² | - |
| 1778023985 | 27.78° C | 71% | 1003 hPa | 0 mm | - | 68 W/m² | - |
| 1778023682 | 27.78° C | 71% | 1003.3 hPa | 0 mm | - | 88 W/m² | - |
| 1778023380 | 27.78° C | 71% | 1003 hPa | 0 mm | - | 84 W/m² | - |
| 1778023076 | 27.78° C | 70% | 1002.9 hPa | 0 mm | - | 104 W/m² | - |
| 1778022775 | 27.78° C | 70% | 1003 hPa | 0 mm | - | 106 W/m² | - |
| 1778022472 | 28.33° C | 70% | 1002.9 hPa | 0 mm | - | 130 W/m² | - |
| 1778022169 | 28.89° C | 68% | 1002.9 hPa | 0 mm | - | 235 W/m² | - |
| 1778021865 | 28.33° C | 68% | 1002.9 hPa | 0 mm | - | 372 W/m² | - |
| 1778021563 | 28.33° C | 69% | 1002.9 hPa | 0 mm | - | 192 W/m² | - |
| 1778021258 | 28.33° C | 69% | 1002.9 hPa | 0 mm | - | 169 W/m² | - |
| 1778020956 | 28.89° C | 68% | 1002.6 hPa | 0 mm | - | 172 W/m² | - |
| 1778020653 | 29.44° C | 66% | 1002.5 hPa | 0 mm | - | 131 W/m² | - |
| 1778020349 | 29.44° C | 66% | 1002.3 hPa | 0 mm | - | 407 W/m² | - |
| 1778020045 | 28.89° C | 67% | 1002.5 hPa | 0 mm | - | 451 W/m² | - |
| 1778019741 | 29.44° C | 67% | 1002.7 hPa | 0 mm | - | 247 W/m² | - |
| 1778019439 | 29.44° C | 65% | 1002.5 hPa | 0 mm | - | 446 W/m² | - |
| 1778019135 | 30° C | 65% | 1002.9 hPa | 0 mm | - | 448 W/m² | - |
| 1778018832 | 30° C | 65% | 1002.7 hPa | 0 mm | - | 411 W/m² | - |
| 1778018530 | 30° C | 66% | 1002.6 hPa | 0 mm | - | 486 W/m² | - |
| 1778018228 | 30° C | 66% | 1002.9 hPa | 0 mm | - | 533 W/m² | - |
| 1778017926 | 29.44° C | 65% | 1002.9 hPa | 0 mm | - | 581 W/m² | - |
| 1778017623 | 28.89° C | 66% | 1002.7 hPa | 0 mm | - | 681 W/m² | - |
| 1778017320 | 29.44° C | 66% | 1002.9 hPa | 0 mm | - | 252 W/m² | - |
| 1778017018 | 29.44° C | 64% | 1002.7 hPa | 0 mm | - | 421 W/m² | - |
* Rain latest hour (hover to see other rain measurements)
** Current wind speed in m/s (hover to see current wind gust speed)